| time (UTC) | temp F | wind direction | speed MPH | gust MPH | rain 1hr in | rain 24hr in | rain mn in | humidity % | barometer mb |
| 20260901155854 | 71 | 72 | 1.0 | 4.0 | 0.00 | 0.10 | 0.03 | 59 | 1020.6 |
| 20260901155354 | 71 | 233 | 1.0 | 6.0 | 0.00 | 0.10 | 0.03 | 58 | 1020.6 |
| 20260901155124 | 72 | 297 | 1.0 | 6.0 | 0.00 | 0.10 | 0.03 | 49 | 1020.6 |
| 20260901154624 | 70 | 280 | 1.0 | 5.0 | 0.00 | 0.10 | 0.03 | 55 | 1020.6 |
| 20260901153852 | 68 | 264 | 0.0 | 0.0 | 0.00 | 0.10 | 0.03 | 60 | 1020.6 |
| 20260901153353 | 67 | 263 | 0.0 | 2.0 | 0.00 | 0.10 | 0.03 | 59 | 1020.6 |
| 20260901153125 | 67 | 267 | 1.0 | 3.0 | 0.00 | 0.10 | 0.03 | 65 | 1020.6 |
| 20260901152354 | 66 | 257 | 1.0 | 3.0 | 0.00 | 0.10 | 0.03 | 63 | 1020.6 |
| 20260901151853 | 65 | 275 | 0.0 | 2.0 | 0.00 | 0.10 | 0.03 | 64 | 1020.6 |
| 20260901151356 | 65 | 219 | 0.0 | 0.0 | 0.00 | 0.10 | 0.03 | 72 | 1020.6 |
| 20260901151351 | 65 | 123 | 0.0 | 2.0 | 0.00 | 0.10 | 0.03 | 69 | 1020.6 |
| 20260901150350 | 65 | 96 | 0.0 | 0.0 | 0.00 | 0.10 | 0.03 | 74 | 1020.6 |
| 20260901145849 | 65 | 96 | 0.0 | 0.0 | 0.00 | 0.10 | 0.03 | 73 | 1020.6 |
| 20260901145349 | 65 | 96 | 0.0 | 0.0 | 0.00 | 0.10 | 0.03 | 73 | 1020.6 |
| 20260901144850 | 65 | 96 | 0.0 | 0.0 | 0.00 | 0.10 | 0.03 | 71 | 1020.6 |
| 20260901144348 | 65 | 319 | 0.0 | 0.0 | 0.00 | 0.10 | 0.03 | 71 | 1020.6 |
| 20260901143849 | 64 | 299 | 1.0 | 7.0 | 0.00 | 0.10 | 0.03 | 67 | 1020.6 |
| 20260901143352 | 64 | 96 | 1.0 | 7.0 | 0.00 | 0.10 | 0.03 | 69 | 1020.6 |
| 20260901142849 | 63 | 206 | 0.0 | 0.0 | 0.00 | 0.10 | 0.03 | 74 | 1020.6 |
| 20260901142348 | 63 | 101 | 0.0 | 0.0 | 0.00 | 0.10 | 0.03 | 74 | 1020.6 |
| 20260901141847 | 62 | 113 | 0.0 | 0.0 | 0.00 | 0.10 | 0.03 | 72 | 1020.6 |
| 20260901141345 | 62 | 113 | 0.0 | 0.0 | 0.00 | 0.10 | 0.03 | 73 | 1020.6 |
| 20260901140846 | 62 | 113 | 0.0 | 0.0 | 0.00 | 0.10 | 0.03 | 72 | 1020.6 |
| 20260901140346 | 62 | 102 | 0.0 | 0.0 | 0.00 | 0.10 | 0.03 | 72 | 1020.6 |
| 20260901135847 | 62 | 102 | 0.0 | 0.0 | 0.00 | 0.10 | 0.03 | 72 | 1020.6 |
| 20260901135346 | 62 | 114 | 0.0 | 0.0 | 0.00 | 0.10 | 0.03 | 72 | 1020.6 |
| 20260901134846 | 62 | 252 | 0.0 | 0.0 | 0.00 | 0.10 | 0.03 | 71 | 1020.6 |
| 20260901134343 | 63 | 226 | 0.0 | 0.0 | 0.00 | 0.10 | 0.03 | 70 | 1020.6 |
| 20260901133841 | 63 | 144 | 0.0 | 0.0 | 0.00 | 0.10 | 0.03 | 69 | 1020.6 |
| 20260901133342 | 63 | 172 | 0.0 | 1.0 | 0.00 | 0.10 | 0.03 | 68 | 1020.6 |
| 20260901132841 | 63 | 262 | 0.0 | 2.0 | 0.00 | 0.10 | 0.03 | 69 | 1020.6 |
| 20260901132343 | 63 | 285 | 0.0 | 0.0 | 0.00 | 0.10 | 0.03 | 67 | 1020.6 |
| 20260901132338 | 63 | 262 | 0.0 | 2.0 | 0.00 | 0.10 | 0.03 | 66 | 1020.6 |
| 20260901131338 | 62 | 285 | 0.0 | 2.0 | 0.00 | 0.10 | 0.03 | 69 | 1020.6 |
| 20260901130840 | 62 | 285 | 0.0 | 2.0 | 0.00 | 0.10 | 0.03 | 69 | 1020.6 |
| 20260901130339 | 62 | 275 | 0.0 | 3.0 | 0.00 | 0.10 | 0.03 | 71 | 1020.6 |
| 20260901130108 | 61 | 272 | 0.0 | 3.0 | 0.00 | 0.10 | 0.03 | 73 | 1020.6 |
| 20260901125342 | 60 | 290 | 0.0 | 3.0 | 0.00 | 0.10 | 0.03 | 77 | 1020.6 |
| 20260901125337 | 60 | 276 | 0.0 | 0.0 | 0.00 | 0.10 | 0.03 | 76 | 1020.6 |
| 20260901125002 | 59 | 298 | 2.0 | 5.0 | 0.00 | 0.10 | 0.03 | 79 | 1020.6 |
| 20260901123844 | 60 | 287 | 1.0 | 3.0 | 0.00 | 0.10 | 0.03 | 79 | 1020.6 |
| 20260901123838 | 59 | 295 | 2.0 | 5.0 | 0.00 | 0.10 | 0.03 | 79 | 1020.6 |
| 20260901123108 | 60 | 294 | 1.0 | 3.0 | 0.00 | 0.10 | 0.03 | 79 | 1020.6 |
| 20260901122338 | 60 | 287 | 0.0 | 3.0 | 0.00 | 0.10 | 0.03 | 79 | 1020.6 |
| 20260901121835 | 60 | 294 | 1.0 | 4.0 | 0.00 | 0.10 | 0.03 | 78 | 1020.6 |
| 20260901121335 | 60 | 276 | 3.0 | 5.0 | 0.00 | 0.10 | 0.03 | 78 | 1020.6 |
| 20260901120835 | 60 | 300 | 3.0 | 5.0 | 0.00 | 0.10 | 0.03 | 77 | 1020.6 |
| 20260901120334 | 61 | 298 | 2.0 | 5.0 | 0.00 | 0.10 | 0.03 | 76 | 1020.6 |
| 20260901115830 | 60 | 279 | 2.0 | 4.0 | 0.00 | 0.10 | 0.03 | 76 | 1020.6 |
| 20260901115330 | 60 | 283 | 1.0 | 2.0 | 0.00 | 0.10 | 0.03 | 77 | 1020.6 |
| 20260901114830 | 61 | 279 | 0.0 | 2.0 | 0.00 | 0.10 | 0.03 | 76 | 1020.6 |
| 20260901114328 | 61 | 279 | 0.0 | 1.0 | 0.00 | 0.10 | 0.03 | 75 | 1020.6 |
| 20260901113828 | 61 | 279 | 0.0 | 0.0 | 0.00 | 0.10 | 0.03 | 76 | 1020.6 |
| 20260901113327 | 61 | 280 | 0.0 | 0.0 | 0.00 | 0.10 | 0.03 | 75 | 1020.6 |
| 20260901112827 | 60 | 279 | 0.0 | 0.0 | 0.00 | 0.10 | 0.03 | 77 | 1020.6 |
| 20260901112328 | 60 | 280 | 0.0 | 0.0 | 0.00 | 0.10 | 0.03 | 78 | 1020.6 |
| 20260901111828 | 60 | 279 | 0.0 | 0.0 | 0.00 | 0.10 | 0.03 | 81 | 1020.6 |
| 20260901111328 | 60 | 279 | 0.0 | 0.0 | 0.00 | 0.10 | 0.03 | 81 | 1020.6 |
| 20260901110827 | 60 | 280 | 0.0 | 0.0 | 0.00 | 0.10 | 0.03 | 80 | 1020.6 |
| 20260901110328 | 60 | 280 | 0.0 | 0.0 | 0.00 | 0.10 | 0.03 | 81 | 1020.6 |
| 20260901105827 | 60 | 279 | 0.0 | 0.0 | 0.00 | 0.10 | 0.03 | 81 | 1020.6 |
| 20260901105326 | 60 | 280 | 0.0 | 0.0 | 0.00 | 0.10 | 0.03 | 82 | 1020.6 |
| 20260901104827 | 60 | 279 | 0.0 | 0.0 | 0.00 | 0.10 | 0.03 | 82 | 1020.6 |
| 20260901104328 | 60 | 279 | 0.0 | 0.0 | 0.00 | 0.10 | 0.03 | 81 | 1020.6 |
| 20260901103827 | 60 | 280 | 0.0 | 0.0 | 0.00 | 0.10 | 0.03 | 80 | 1020.6 |
| 20260901103327 | 60 | 279 | 0.0 | 0.0 | 0.00 | 0.10 | 0.03 | 81 | 1020.6 |
| 20260901102826 | 60 | 280 | 0.0 | 0.0 | 0.00 | 0.10 | 0.03 | 82 | 1020.6 |
| 20260901102328 | 60 | 280 | 0.0 | 0.0 | 0.00 | 0.10 | 0.03 | 81 | 1020.6 |
| 20260901101828 | 60 | 279 | 0.0 | 0.0 | 0.00 | 0.10 | 0.03 | 80 | 1020.6 |
| 20260901101326 | 60 | 279 | 0.0 | 0.0 | 0.00 | 0.10 | 0.03 | 80 | 1020.6 |
| 20260901100828 | 60 | 280 | 0.0 | 0.0 | 0.00 | 0.10 | 0.03 | 82 | 1020.6 |
| 20260901100329 | 60 | 279 | 0.0 | 0.0 | 0.00 | 0.10 | 0.03 | 82 | 1020.6 |
| 20260901095826 | 60 | 280 | 0.0 | 0.0 | 0.00 | 0.10 | 0.03 | 82 | 1020.6 |
| 20260901095327 | 60 | 279 | 0.0 | 0.0 | 0.00 | 0.10 | 0.03 | 81 | 1020.6 |
| 20260901094827 | 61 | 279 | 0.0 | 0.0 | 0.00 | 0.10 | 0.03 | 81 | 1020.6 |
| 20260901094559 | 61 | 279 | 0.0 | 0.0 | 0.00 | 0.10 | 0.03 | 81 | 1020.6 |
| 20260901093826 | 61 | 279 | 0.0 | 0.0 | 0.00 | 0.10 | 0.03 | 82 | 1020.6 |
| 20260901093327 | 61 | 279 | 0.0 | 0.0 | 0.00 | 0.10 | 0.03 | 82 | 1020.6 |
| 20260901092829 | 61 | 279 | 0.0 | 0.0 | 0.00 | 0.10 | 0.03 | 82 | 1020.6 |
| 20260901092326 | 61 | 279 | 0.0 | 0.0 | 0.00 | 0.10 | 0.03 | 81 | 1020.6 |
| 20260901091827 | 61 | 279 | 0.0 | 0.0 | 0.00 | 0.10 | 0.03 | 81 | 1020.6 |
| 20260901091558 | 61 | 279 | 0.0 | 0.0 | 0.00 | 0.10 | 0.03 | 80 | 1020.6 |
| 20260901091058 | 62 | 279 | 0.0 | 0.0 | 0.00 | 0.10 | 0.03 | 79 | 1020.6 |
| 20260901090328 | 61 | 279 | 0.0 | 0.0 | 0.00 | 0.10 | 0.03 | 79 | 1020.6 |
| 20260901085828 | 62 | 279 | 0.0 | 0.0 | 0.00 | 0.10 | 0.03 | 80 | 1020.6 |
| 20260901085327 | 61 | 279 | 0.0 | 0.0 | 0.00 | 0.10 | 0.03 | 80 | 1020.6 |
| 20260901084824 | 61 | 279 | 0.0 | 0.0 | 0.00 | 0.10 | 0.03 | 82 | 1020.6 |
| 20260901084325 | 62 | 280 | 0.0 | 0.0 | 0.00 | 0.10 | 0.03 | 81 | 1020.6 |
| 20260901083824 | 62 | 279 | 0.0 | 0.0 | 0.00 | 0.10 | 0.03 | 80 | 1020.6 |
| 20260901083556 | 61 | 279 | 0.0 | 0.0 | 0.00 | 0.10 | 0.03 | 80 | 1020.6 |
| 20260901082822 | 61 | 279 | 0.0 | 0.0 | 0.00 | 0.10 | 0.03 | 79 | 1020.6 |
| 20260901082321 | 61 | 279 | 0.0 | 0.0 | 0.00 | 0.10 | 0.03 | 80 | 1020.6 |
| 20260901081823 | 61 | 279 | 0.0 | 0.0 | 0.00 | 0.10 | 0.03 | 81 | 1020.6 |
| 20260901081322 | 61 | 279 | 0.0 | 0.0 | 0.00 | 0.10 | 0.03 | 80 | 1020.6 |
| 20260901080822 | 61 | 279 | 0.0 | 0.0 | 0.00 | 0.10 | 0.03 | 82 | 1020.6 |
| 20260901080321 | 61 | 279 | 0.0 | 0.0 | 0.01 | 0.10 | 0.03 | 83 | 1020.6 |
| 20260901080054 | 61 | 276 | 0.0 | 0.0 | 0.02 | 0.10 | 0.03 | 81 | 1020.6 |
| 20260901075321 | 61 | 276 | 0.0 | 0.0 | 0.02 | 0.10 | 0.03 | 80 | 1020.6 |
| 20260901074820 | 61 | 276 | 0.0 | 0.0 | 0.03 | 0.10 | 0.03 | 81 | 1020.6 |
| 20260901074321 | 61 | 276 | 0.0 | 0.0 | 0.03 | 0.10 | 0.03 | 82 | 1020.6 |
| 20260901073819 | 61 | 276 | 0.0 | 0.0 | 0.03 | 0.10 | 0.03 | 84 | 1020.6 |
| 20260901073319 | 61 | 276 | 0.0 | 1.0 | 0.03 | 0.10 | 0.03 | 85 | 1020.6 |
| 20260901072819 | 60 | 276 | 0.0 | 2.0 | 0.03 | 0.10 | 0.03 | 85 | 1020.6 |
| 20260901072321 | 60 | 281 | 0.0 | 2.0 | 0.03 | 0.10 | 0.03 | 85 | 1020.6 |
| 20260901071818 | 60 | 252 | 0.0 | 0.0 | 0.03 | 0.10 | 0.03 | 85 | 1020.6 |
| 20260901071319 | 60 | 103 | 0.0 | 0.0 | 0.03 | 0.10 | 0.03 | 86 | 1020.6 |
| 20260901071049 | 61 | 103 | 0.0 | 0.0 | 0.03 | 0.10 | 0.03 | 84 | 1020.6 |
| 20260901070317 | 61 | 103 | 0.0 | 0.0 | 0.02 | 0.09 | 0.02 | 83 | 1020.6 |
| 20260901065817 | 62 | 101 | 0.0 | 1.0 | 0.01 | 0.08 | 0.01 | 82 | 1020.6 |
| 20260901065316 | 62 | 91 | 0.0 | 2.0 | 0.01 | 0.08 | 0.01 | 80 | 1020.6 |
| 20260901064816 | 62 | 69 | 0.0 | 2.0 | 0.00 | 0.07 | 0.00 | 79 | 1020.6 |
| 20260901064314 | 62 | 215 | 0.0 | 1.0 | 0.00 | 0.07 | 0.00 | 79 | 1020.6 |
| 20260901063814 | 62 | 153 | 0.0 | 1.0 | 0.00 | 0.07 | 0.00 | 79 | 1020.6 |
| 20260901063317 | 62 | 148 | 0.0 | 1.0 | 0.00 | 0.07 | 0.00 | 79 | 1020.6 |
| 20260901062814 | 63 | 254 | 0.0 | 1.0 | 0.00 | 0.07 | 0.00 | 78 | 1020.6 |
| 20260901062316 | 63 | 278 | 0.0 | 0.0 | 0.00 | 0.07 | 0.00 | 76 | 1020.6 |
| 20260901061816 | 63 | 279 | 0.0 | 0.0 | 0.00 | 0.07 | 0.00 | 76 | 1020.6 |
| 20260901061316 | 63 | 279 | 0.0 | 0.0 | 0.00 | 0.07 | 0.00 | 76 | 1020.6 |
| 20260901061047 | 63 | 278 | 0.0 | 0.0 | 0.00 | 0.07 | 0.00 | 77 | 1020.6 |
| 20260901060313 | 63 | 278 | 0.0 | 0.0 | 0.00 | 0.07 | 0.00 | 77 | 1020.6 |
| 20260901055815 | 63 | 278 | 0.0 | 1.0 | 0.00 | 0.07 | 0.07 | 77 | 1020.6 |
| 20260901055312 | 63 | 279 | 0.0 | 2.0 | 0.00 | 0.07 | 0.07 | 77 | 1020.6 |
| 20260901054812 | 63 | 298 | 1.0 | 3.0 | 0.00 | 0.07 | 0.07 | 77 | 1020.6 |
| 20260901054314 | 62 | 272 | 2.0 | 5.0 | 0.00 | 0.07 | 0.07 | 79 | 1020.6 |
| 20260901053818 | 61 | 278 | 2.0 | 5.0 | 0.00 | 0.07 | 0.07 | 83 | 1020.6 |
| 20260901053813 | 62 | 280 | 2.0 | 5.0 | 0.00 | 0.07 | 0.07 | 82 | 1020.6 |
| 20260901052810 | 61 | 288 | 2.0 | 4.0 | 0.00 | 0.07 | 0.07 | 84 | 1020.6 |
| 20260901052311 | 61 | 289 | 2.0 | 4.0 | 0.00 | 0.07 | 0.07 | 84 | 1020.6 |
| 20260901052043 | 61 | 297 | 1.0 | 4.0 | 0.00 | 0.07 | 0.07 | 84 | 1020.6 |
| 20260901051311 | 60 | 258 | 1.0 | 3.0 | 0.00 | 0.07 | 0.07 | 86 | 1020.6 |
| 20260901050812 | 60 | 280 | 2.0 | 5.0 | 0.00 | 0.07 | 0.07 | 86 | 1020.6 |
| 20260901050312 | 60 | 293 | 2.0 | 5.0 | 0.00 | 0.07 | 0.07 | 86 | 1020.6 |
| 20260901050043 | 60 | 283 | 2.0 | 4.0 | 0.00 | 0.07 | 0.07 | 86 | 1020.6 |
| 20260901045311 | 60 | 287 | 2.0 | 4.0 | 0.00 | 0.07 | 0.07 | 87 | 1020.6 |
| 20260901044809 | 60 | 293 | 2.0 | 4.0 | 0.00 | 0.07 | 0.07 | 87 | 1020.6 |
| 20260901044308 | 60 | 277 | 3.0 | 4.0 | 0.00 | 0.07 | 0.07 | 87 | 1020.6 |
| 20260901043813 | 60 | 296 | 2.0 | 3.0 | 0.00 | 0.07 | 0.07 | 88 | 1020.6 |
| 20260901043309 | 60 | 292 | 1.0 | 3.0 | 0.00 | 0.07 | 0.07 | 89 | 1020.6 |
| 20260901042807 | 60 | 306 | 0.0 | 0.0 | 0.00 | 0.07 | 0.07 | 89 | 1020.6 |
| 20260901042537 | 60 | 322 | 0.0 | 0.0 | 0.00 | 0.07 | 0.07 | 89 | 1020.6 |
| 20260901041809 | 60 | 345 | 0.0 | 0.0 | 0.00 | 0.07 | 0.07 | 89 | 1020.6 |
| 20260901041311 | 60 | 15 | 0.0 | 3.0 | 0.00 | 0.07 | 0.07 | 90 | 1020.6 |
| 20260901041305 | 60 | 341 | 0.0 | 3.0 | 0.00 | 0.07 | 0.07 | 89 | 1020.6 |
| 20260901040306 | 61 | 345 | 1.0 | 4.0 | 0.00 | 0.07 | 0.07 | 91 | 1020.6 |
| 20260901035802 | 61 | 31 | 2.0 | 6.0 | 0.00 | 0.07 | 0.07 | 92 | 1020.6 |
| 20260901035305 | 60 | 41 | 4.0 | 9.0 | 0.01 | 0.07 | 0.07 | 94 | 1020.6 |
| 20260901034802 | 60 | 317 | 5.0 | 12.0 | 0.02 | 0.07 | 0.07 | 95 | 1020.6 |
| 20260901034304 | 60 | 321 | 5.0 | 12.0 | 0.03 | 0.07 | 0.07 | 95 | 1020.6 |
| 20260901033801 | 60 | 34 | 4.0 | 8.0 | 0.03 | 0.07 | 0.07 | 95 | 1020.6 |
| 20260901033303 | 59 | 331 | 1.0 | 6.0 | 0.04 | 0.07 | 0.07 | 95 | 1020.6 |
| 20260901032801 | 60 | 309 | 0.0 | 1.0 | 0.04 | 0.07 | 0.07 | 95 | 1020.6 |
| 20260901032301 | 60 | 311 | 0.0 | 1.0 | 0.04 | 0.07 | 0.07 | 95 | 1020.6 |
| 20260901031800 | 60 | 353 | 0.0 | 1.0 | 0.05 | 0.07 | 0.07 | 95 | 1020.6 |
| 20260901031301 | 60 | 66 | 0.0 | 1.0 | 0.05 | 0.07 | 0.07 | 94 | 1020.6 |
| 20260901030801 | 60 | 61 | 0.0 | 0.0 | 0.06 | 0.07 | 0.07 | 94 | 1020.6 |
| 20260901030303 | 60 | 303 | 0.0 | 0.0 | 0.06 | 0.07 | 0.07 | 94 | 1020.6 |
| 20260901025759 | 60 | 86 | 0.0 | 0.0 | 0.06 | 0.07 | 0.07 | 94 | 1020.6 |
| 20260901025259 | 60 | 87 | 0.0 | 0.0 | 0.05 | 0.06 | 0.07 | 93 | 1020.6 |
| 20260901024758 | 61 | 98 | 0.0 | 0.0 | 0.04 | 0.05 | 0.06 | 93 | 1020.6 |
| 20260901024301 | 61 | 101 | 0.0 | 0.0 | 0.03 | 0.04 | 0.05 | 93 | 1020.6 |
| 20260901023757 | 62 | 166 | 0.0 | 1.0 | 0.03 | 0.04 | 0.04 | 92 | 1020.6 |
| 20260901023256 | 62 | 100 | 0.0 | 1.0 | 0.02 | 0.03 | 0.03 | 91 | 1020.6 |
| 20260901022757 | 62 | 116 | 0.0 | 3.0 | 0.02 | 0.03 | 0.03 | 90 | 1020.6 |
| 20260901022258 | 63 | 308 | 0.0 | 3.0 | 0.02 | 0.03 | 0.03 | 87 | 1020.6 |
| 20260901021755 | 65 | 289 | 0.0 | 4.0 | 0.01 | 0.02 | 0.02 | 82 | 1020.6 |
| 20260901021253 | 67 | 33 | 1.0 | 4.0 | 0.01 | 0.02 | 0.02 | 65 | 1020.6 |
| 20260901021023 | 69 | 140 | 0.0 | 3.0 | 0.00 | 0.01 | 0.01 | 61 | 1020.6 |
| 20260901020523 | 70 | 94 | 1.0 | 5.0 | 0.00 | 0.01 | 0.01 | 55 | 1020.6 |
| 20260901015752 | 70 | 296 | 2.0 | 5.0 | 0.00 | 0.01 | 0.01 | 55 | 1020.6 |
| 20260901015254 | 69 | 279 | 3.0 | 7.0 | 0.00 | 0.01 | 0.01 | 55 | 1020.6 |
| 20260901014752 | 69 | 282 | 4.0 | 7.0 | 0.00 | 0.01 | 0.01 | 57 | 1020.6 |
| 20260901014522 | 68 | 297 | 5.0 | 9.0 | 0.00 | 0.01 | 0.01 | 57 | 1020.6 |
| 20260901013756 | 67 | 294 | 5.0 | 9.0 | 0.01 | 0.01 | 0.01 | 60 | 1020.6 |
| 20260901013752 | 67 | 300 | 5.0 | 9.0 | 0.01 | 0.01 | 0.01 | 61 | 1020.6 |
| 20260901012751 | 66 | 290 | 5.0 | 9.0 | 0.01 | 0.01 | 0.01 | 64 | 1020.6 |
| 20260901012253 | 67 | 309 | 5.0 | 9.0 | 0.01 | 0.01 | 0.01 | 64 | 1020.6 |
| 20260901011752 | 66 | 321 | 4.0 | 9.0 | 0.01 | 0.01 | 0.01 | 64 | 1020.6 |
| 20260901011252 | 66 | 292 | 4.0 | 7.0 | 0.01 | 0.01 | 0.01 | 66 | 1020.6 |
| 20260901010752 | 66 | 322 | 4.0 | 9.0 | 0.01 | 0.01 | 0.01 | 67 | 1020.6 |
| 20260901010253 | 66 | 312 | 4.0 | 9.0 | 0.01 | 0.01 | 0.01 | 67 | 1020.6 |
| 20260901005753 | 65 | 296 | 4.0 | 7.0 | 0.01 | 0.01 | 0.01 | 71 | 1020.6 |
| 20260901005252 | 65 | 302 | 6.0 | 12.0 | 0.01 | 0.01 | 0.01 | 71 | 1020.6 |
| 20260901004752 | 65 | 296 | 8.0 | 13.0 | 0.01 | 0.01 | 0.01 | 71 | 1020.6 |
| 20260901004251 | 67 | 303 | 10.0 | 17.0 | 0.01 | 0.01 | 0.01 | 66 | 1020.6 |
| 20260901003752 | 70 | 297 | 11.0 | 20.0 | 0.00 | 0.00 | 0.00 | 60 | 1020.6 |
| 20260901003251 | 74 | 293 | 10.0 | 20.0 | 0.00 | 0.00 | 0.00 | 46 | 1020.6 |
| 20260901002754 | 75 | 293 | 5.0 | 17.0 | 0.00 | 0.00 | 0.00 | 42 | 1020.6 |
| 20260901002252 | 77 | 322 | 1.0 | 12.0 | 0.00 | 0.00 | 0.00 | 37 | 1020.6 |
| 20260901001752 | 77 | 100 | 0.0 | 3.0 | 0.00 | 0.00 | 0.00 | 37 | 1020.6 |
| 20260901001523 | 78 | 96 | 1.0 | 3.0 | 0.00 | 0.00 | 0.00 | 37 | 1020.6 |
| 20260901000756 | 78 | 98 | 0.0 | 4.0 | 0.00 | 0.00 | 0.00 | 36 | 1020.6 |
| 20260901000751 | 78 | 92 | 0.0 | 3.0 | 0.00 | 0.00 | 0.00 | 36 | 1020.6 |
| 20260831235754 | 78 | 95 | 1.0 | 5.0 | 0.00 | 0.00 | 0.00 | 35 | 1020.6 |
| 20260831235252 | 78 | 87 | 1.0 | 5.0 | 0.00 | 0.00 | 0.00 | 35 | 1020.6 |
| 20260831235024 | 79 | 72 | 1.0 | 3.0 | 0.00 | 0.00 | 0.00 | 34 | 1020.6 |
| 20260831234254 | 79 | 72 | 2.0 | 5.0 | 0.00 | 0.00 | 0.00 | 35 | 1020.6 |
| 20260831233752 | 79 | 88 | 3.0 | 6.0 | 0.00 | 0.00 | 0.00 | 35 | 1020.6 |
| 20260831233252 | 80 | 64 | 3.0 | 6.0 | 0.00 | 0.00 | 0.00 | 35 | 1020.6 |
| 20260831232749 | 80 | 78 | 3.0 | 6.0 | 0.00 | 0.00 | 0.00 | 34 | 1020.6 |
| 20260831232251 | 80 | 51 | 3.0 | 6.0 | 0.00 | 0.00 | 0.00 | 33 | 1020.6 |
| 20260831231750 | 81 | 70 | 2.0 | 6.0 | 0.00 | 0.00 | 0.00 | 33 | 1020.6 |
| 20260831231251 | 81 | 34 | 3.0 | 8.0 | 0.00 | 0.00 | 0.00 | 34 | 1020.6 |
| 20260831230753 | 81 | 52 | 2.0 | 8.0 | 0.00 | 0.00 | 0.00 | 34 | 1020.6 |
| 20260831230747 | 81 | 68 | 4.0 | 8.0 | 0.00 | 0.00 | 0.00 | 33 | 1020.6 |
| 20260831230018 | 81 | 98 | 1.0 | 5.0 | 0.00 | 0.00 | 0.00 | 34 | 1020.6 |
| 20260831225249 | 80 | 79 | 2.0 | 5.0 | 0.00 | 0.00 | 0.00 | 35 | 1020.6 |
| 20260831224749 | 80 | 89 | 3.0 | 7.0 | 0.00 | 0.00 | 0.00 | 35 | 1020.6 |
| 20260831224517 | 80 | 57 | 2.0 | 7.0 | 0.00 | 0.00 | 0.00 | 35 | 1020.6 |
| 20260831223747 | 80 | 82 | 3.0 | 8.0 | 0.00 | 0.00 | 0.00 | 34 | 1020.6 |
| 20260831223248 | 81 | 68 | 4.0 | 8.0 | 0.00 | 0.00 | 0.00 | 34 | 1020.6 |
| 20260831223016 | 81 | 118 | 3.0 | 8.0 | 0.00 | 0.00 | 0.00 | 34 | 1020.6 |
| 20260831222245 | 80 | 88 | 2.0 | 6.0 | 0.00 | 0.00 | 0.00 | 35 | 1020.6 |
| 20260831221748 | 80 | 112 | 1.0 | 6.0 | 0.00 | 0.00 | 0.00 | 35 | 1020.6 |
| 20260831221517 | 80 | 85 | 1.0 | 6.0 | 0.00 | 0.00 | 0.00 | 35 | 1020.6 |
| 20260831221016 | 80 | 79 | 0.0 | 3.0 | 0.00 | 0.00 | 0.00 | 35 | 1020.6 |
| 20260831220518 | 80 | 98 | 0.0 | 2.0 | 0.00 | 0.00 | 0.00 | 35 | 1020.6 |
| 20260831215745 | 80 | 65 | 1.0 | 4.0 | 0.00 | 0.00 | 0.00 | 35 | 1020.6 |
| 20260831215248 | 80 | 75 | 2.0 | 5.0 | 0.00 | 0.00 | 0.00 | 34 | 1020.6 |
| 20260831214747 | 80 | 104 | 2.0 | 5.0 | 0.00 | 0.00 | 0.00 | 35 | 1020.6 |
| 20260831214244 | 80 | 66 | 2.0 | 7.0 | 0.00 | 0.00 | 0.00 | 35 | 1020.6 |
| 20260831213744 | 80 | 82 | 1.0 | 7.0 | 0.00 | 0.00 | 0.00 | 35 | 1020.6 |
| 20260831213246 | 80 | 238 | 2.0 | 8.0 | 0.00 | 0.00 | 0.00 | 35 | 1020.6 |
| 20260831212747 | 80 | 72 | 2.0 | 8.0 | 0.00 | 0.00 | 0.00 | 35 | 1020.6 |
| 20260831212741 | 80 | 96 | 2.0 | 8.0 | 0.00 | 0.00 | 0.00 | 35 | 1020.6 |
| 20260831211743 | 80 | 64 | 3.0 | 8.0 | 0.00 | 0.00 | 0.00 | 36 | 1020.6 |
| 20260831211239 | 80 | 67 | 4.0 | 8.0 | 0.00 | 0.00 | 0.00 | 34 | 1020.6 |
| 20260831210739 | 80 | 74 | 3.0 | 8.0 | 0.00 | 0.00 | 0.00 | 35 | 1020.6 |
| 20260831210241 | 80 | 79 | 2.0 | 6.0 | 0.00 | 0.00 | 0.00 | 35 | 1020.6 |
| 20260831205738 | 80 | 83 | 0.0 | 2.0 | 0.00 | 0.00 | 0.00 | 35 | 1020.6 |
| 20260831205237 | 80 | 147 | 0.0 | 3.0 | 0.00 | 0.00 | 0.00 | 35 | 1020.6 |
| 20260831204740 | 80 | 132 | 1.0 | 4.0 | 0.00 | 0.00 | 0.00 | 36 | 1020.6 |
| 20260831204509 | 79 | 100 | 3.0 | 9.0 | 0.00 | 0.00 | 0.00 | 36 | 1020.6 |
| 20260831203735 | 79 | 70 | 3.0 | 9.0 | 0.00 | 0.01 | 0.00 | 36 | 1020.6 |
| 20260831203235 | 79 | 105 | 2.0 | 7.0 | 0.00 | 0.02 | 0.00 | 35 | 1020.6 |
| 20260831202738 | 80 | 103 | 0.0 | 2.0 | 0.00 | 0.04 | 0.00 | 36 | 1020.6 |
| 20260831202733 | 79 | 86 | 1.0 | 7.0 | 0.00 | 0.03 | 0.00 | 36 | 1020.6 |
| 20260831202005 | 79 | 160 | 1.0 | 5.0 | 0.00 | 0.04 | 0.00 | 35 | 1020.6 |
| 20260831201234 | 78 | 84 | 3.0 | 10.0 | 0.00 | 0.04 | 0.00 | 36 | 1020.6 |
| 20260831200736 | 79 | 86 | 3.0 | 10.0 | 0.00 | 0.04 | 0.00 | 36 | 1020.6 |
| 20260831200233 | 79 | 82 | 2.0 | 6.0 | 0.00 | 0.04 | 0.00 | 35 | 1020.6 |
| 20260831195734 | 79 | 79 | 2.0 | 8.0 | 0.00 | 0.04 | 0.00 | 36 | 1020.6 |
| 20260831195233 | 79 | 84 | 2.0 | 8.0 | 0.00 | 0.04 | 0.00 | 35 | 1020.6 |
| 20260831194736 | 79 | 246 | 1.0 | 5.0 | 0.00 | 0.04 | 0.00 | 36 | 1020.6 |
| 20260831194234 | 79 | 116 | 1.0 | 4.0 | 0.00 | 0.04 | 0.00 | 36 | 1020.6 |
| 20260831193731 | 79 | 130 | 1.0 | 4.0 | 0.00 | 0.04 | 0.00 | 35 | 1020.6 |
| 20260831193232 | 79 | 177 | 2.0 | 7.0 | 0.00 | 0.04 | 0.00 | 35 | 1020.6 |
| 20260831192732 | 79 | 107 | 2.0 | 7.0 | 0.00 | 0.04 | 0.00 | 35 | 1020.6 |
| 20260831192231 | 79 | 78 | 1.0 | 4.0 | 0.00 | 0.04 | 0.00 | 36 | 1020.6 |
| 20260831191732 | 78 | 107 | 2.0 | 4.0 | 0.00 | 0.04 | 0.00 | 38 | 1020.6 |
| 20260831191231 | 78 | 108 | 1.0 | 4.0 | 0.00 | 0.04 | 0.00 | 37 | 1020.6 |
| 20260831191005 | 78 | 75 | 1.0 | 3.0 | 0.00 | 0.04 | 0.00 | 37 | 1020.6 |
| 20260831190231 | 78 | 118 | 1.0 | 3.0 | 0.00 | 0.04 | 0.00 | 35 | 1020.6 |
| 20260831185733 | 78 | 98 | 0.0 | 3.0 | 0.00 | 0.04 | 0.00 | 37 | 1020.6 |
| 20260831185232 | 77 | 229 | 0.0 | 1.0 | 0.00 | 0.04 | 0.00 | 38 | 1020.6 |
| 20260831184729 | 77 | 278 | 0.0 | 0.0 | 0.00 | 0.04 | 0.00 | 38 | 1020.6 |
| 20260831184230 | 77 | 117 | 0.0 | 0.0 | 0.00 | 0.04 | 0.00 | 37 | 1020.6 |
| 20260831183731 | 77 | 105 | 0.0 | 0.0 | 0.00 | 0.04 | 0.00 | 38 | 1020.6 |
| 20260831183229 | 77 | 108 | 0.0 | 2.0 | 0.00 | 0.04 | 0.00 | 37 | 1020.6 |
| 20260831182730 | 77 | 99 | 0.0 | 2.0 | 0.00 | 0.04 | 0.00 | 38 | 1020.6 |
| 20260831182229 | 78 | 146 | 1.0 | 3.0 | 0.00 | 0.04 | 0.00 | 37 | 1020.6 |
| 20260831181730 | 77 | 130 | 1.0 | 4.0 | 0.00 | 0.04 | 0.00 | 36 | 1020.6 |
| 20260831181230 | 78 | 90 | 1.0 | 4.0 | 0.00 | 0.04 | 0.00 | 36 | 1020.6 |
| 20260831180959 | 78 | 116 | 0.0 | 3.0 | 0.00 | 0.04 | 0.00 | 36 | 1020.6 |
| 20260831180230 | 78 | 88 | 1.0 | 4.0 | 0.00 | 0.04 | 0.00 | 39 | 1020.6 |
| 20260831175728 | 76 | 89 | 1.0 | 4.0 | 0.00 | 0.04 | 0.00 | 37 | 1020.6 |
| 20260831175502 | 76 | 72 | 1.0 | 4.0 | 0.00 | 0.04 | 0.00 | 39 | 1020.6 |
| 20260831174729 | 75 | 95 | 2.0 | 4.0 | 0.00 | 0.04 | 0.00 | 37 | 1020.6 |
| 20260831174229 | 75 | 110 | 1.0 | 4.0 | 0.00 | 0.04 | 0.00 | 40 | 1020.6 |
| 20260831173728 | 75 | 98 | 1.0 | 5.0 | 0.00 | 0.04 | 0.00 | 40 | 1020.6 |
| 20260831173227 | 75 | 105 | 2.0 | 5.0 | 0.00 | 0.04 | 0.00 | 40 | 1020.6 |
| 20260831172730 | 75 | 120 | 2.0 | 6.0 | 0.00 | 0.04 | 0.00 | 39 | 1020.6 |
| 20260831172228 | 75 | 86 | 2.0 | 6.0 | 0.00 | 0.04 | 0.00 | 39 | 1020.6 |
| 20260831171728 | 76 | 100 | 1.0 | 3.0 | 0.00 | 0.04 | 0.00 | 40 | 1020.6 |
| 20260831171500 | 76 | 90 | 1.0 | 4.0 | 0.00 | 0.04 | 0.00 | 40 | 1020.6 |
| 20260831170726 | 75 | 101 | 1.0 | 4.0 | 0.00 | 0.04 | 0.00 | 39 | 1020.6 |
| 20260831170225 | 76 | 109 | 1.0 | 4.0 | 0.00 | 0.04 | 0.00 | 38 | 1020.6 |
| 20260831165728 | 76 | 103 | 0.0 | 2.0 | 0.00 | 0.04 | 0.00 | 39 | 1020.6 |
| 20260831165723 | 76 | 98 | 0.0 | 2.0 | 0.00 | 0.04 | 0.00 | 39 | 1020.6 |
| 20260831164724 | 76 | 219 | 0.0 | 2.0 | 0.00 | 0.04 | 0.00 | 39 | 1020.6 |
| 20260831164221 | 75 | 118 | 1.0 | 4.0 | 0.00 | 0.04 | 0.00 | 40 | 1020.6 |
| 20260831163721 | 75 | 96 | 1.0 | 4.0 | 0.00 | 0.04 | 0.00 | 38 | 1020.6 |
| 20260831163222 | 75 | 82 | 0.0 | 2.0 | 0.00 | 0.04 | 0.00 | 39 | 1020.6 |
| 20260831162723 | 75 | 96 | 0.0 | 1.0 | 0.00 | 0.04 | 0.00 | 39 | 1020.6 |
| 20260831162220 | 76 | 110 | 0.0 | 0.0 | 0.00 | 0.04 | 0.00 | 40 | 1020.6 |
| 20260831161720 | 75 | 112 | 1.0 | 3.0 | 0.00 | 0.04 | 0.00 | 41 | 1020.6 |
| 20260831161451 | 75 | 103 | 1.0 | 3.0 | 0.00 | 0.04 | 0.00 | 41 | 1020.6 |
| 20260831160720 | 76 | 113 | 0.0 | 2.0 | 0.00 | 0.04 | 0.00 | 40 | 1020.6 |